FENGYUN 1C DEB, 30661

Orbit data source: Space-Track

FENGYUN 1C DEB, 30661 is space debris in SSO originally from a launch on Mon, 10 May 1999 UTC launched from the Taiyaun Space Center, China (TSC). Fengyun 1C debris stems from the Chinese weather satellite Fengyun-1C, which was intentionally destroyed by a Chinese anti-satellite missile in 2007. This event dramatically increased the amount of space debris, with thousands of trackable fragments posing hazards to satellites and human spaceflight. The Fengyun 1C debris cloud has become a focal point in discussions about space sustainability and the need for international regulations to prevent the creation of new debris.

Loading next visibility...
Identifier
30661, 1999-025APT
Orbit
SSO
Country
Flag of CNCN / PRC
Related business
Manufacturer
Unknown
Mission
Spacecraft
Bus & Motor
Unknown
Mass
Unknown
Launch date (UTC)
1999-05-10 (27 years ago)
Launch vehicle
Unknown
Launch site
Taiyaun Space Center, China (TSC)
Object type
Payload
Rocket body
Debris
Shape & HBR
Unknown shape, 0.1 m
Radar Cross Section
Small (<0.1 m²)

Expand to show TLE details & history
Last TLE update: 1 day ago

TLE from 1 day ago
0 FENGYUN 1C DEB
1 30661U 99025APT 25350.42006945  .00000225  00000-0  11408-3 0  9992
2 30661  99.4871 166.3698 0144617  35.2853 325.7791 14.21144396979547
Epoch: 2025-12-16T10:04Z
TLE epoch observation values (Epoch: 2025-12-16T10:04:54.000Z)
Latitude
-0.00001°
Longitude
-70.15974°
Altitude
738.75 km
Speed
7.53 km/s
True Right ascension
11h 05m 28s
True Declination
0° 00' 00"
Sunlit
Object was in daylight at epoch
Visualization orbit readout
Latitude
Unknown
Longitude
Unknown
Altitude
Unknown
Speed
Unknown
Apparent Right ascension
Unknown
Apparent Declination
Unknown
Sunlit
N/A
Visualization observer readout
Local Sidereal Time
16:08:48
Azimuth
Unknown
Elevation
Unknown
Doppler factor
Unknown
Orbital elements
Apogee altitude
922.758 km
Perigee altitude
714.602 km
Semi-major axis
7,196.817 km
Eccentricity
0.01446
Inclination
99.4871°
RAAN
166.3698°
Arg. of periapsis
35.2853°
True anomaly
324.83303°
Mean anomaly
325.7791°
Eccentric anomaly
325.30749°
Mean motion
3.55494 °/min
Orbital period
101.27 mins
BSTAR
0.00011408
Loading maneuver chart data...
Computing Atmospheric mass density...

Documentation

Showing up to 5 results
|